星链-35342(STARLINK-35342)

导读

STARLINK-35342是美国于2025年10月26日发射的Starlink星座卫星,归属SpaceX星链互联网卫星项目。星链项目旨在构建覆盖全球的低轨卫星互联网星座,为全球偏远地区、海洋等网络盲区提供高速宽带接入服务。该卫星作为星链扩容的一员,进一步完善了星链低轨星座的全球服务覆盖能力与通信容量。

基本信息
目录编号:
66181
目录名称:
STARLINK-35342
国际标识:
2025-243E
轨道中心:
EARTH
卫星名称:
星链-35342
卫星全名:
星链-35342(STARLINK-35342)
卫星状态:
在轨 (已飞行314 天)
发射日期:
2025-10-26 UTC
国别 :
美国 (US)
星等 :
--
轨道信息
数据来源 国际轨道数据 AOE轨道数据
星历时间 2026-09-05T10:29:00+0800
14小时前
查看轨道信息
2026-09-03T00:00:00+0800
3天前
查看轨道信息
半长轴 6840.833km 6840.865km
偏心率 0.0001383 0.0001535
轨道倾角 53.157° 53.158°
近地点辐角 94.538° 72.766°
升交点赤经 129.710° 141.104°
平近点角 265.578° 139.358°
近地点 461.749km 461.677km
远地点 463.643km 463.779km
周期 93.848分钟 93.848分钟
每日圈数 15.344025 15.343918
详细信息
固有亮度:
5
最大亮度:
2.5
卫星平台:
Starlink V1.0
覆盖范围:
全球
运营商:
太空探索技术公司
运营商所在国:
美国
制造商(研发单位):
太空探索技术公司
制造商所在国:
美国
使用方式:
暂无
卫星简介
Starlink 计划是 SpaceX 推出的全球卫星互联网项目,通过发射低轨道卫星,为全球尤其是偏远地区提供高速、低延迟的互联网服务。自 2019 年起,Starlink 已部署数千颗卫星,旨在缩小全球数字鸿沟,推动互联网普及。该项目还为军事、航空等行业提供通信支持,带来广泛经济效益。
2D轨道图
3D轨道图
轨道高度分析图
轨道倾角分析图
轨道综合分析图
查看轨道综合分析图
交会数据列表
事件ID 空间交会对象 最接近时刻(TCA) 交会距离 交会风险概率(CRP) 交会风险指数(CRI) 操作
CDM_260908-032605-927106-618121
2026-09-08T
03:26:59+0000
0.262 km
中距离
4.657057E-4 高风险 0.88
CDM_260906-160804-103906-618122
2026-09-06T
16:08:51+0000
1.685 km
极远距离
4.597579E-6 低风险 0.48
CDM_260908-015305-927106-618121
2026-09-08T
01:53:12+0000
1.784 km
极远距离
2.563728E-6 低风险 0.43
CDM_260906-002805-825006-618122
2026-09-06T
00:28:38+0000
2.790 km
极远距离
1.223578E-6 低风险 0.37
CDM_260906-110606-618106-854821
2026-09-06T
11:06:39+0000
2.823 km
极远距离
1.179984E-6 低风险 0.36